User: anonymous
Location: Unspecified
(0.0000°N, 0.0000°E)
Time: 17:44:29
(UTC+00:00)
Language:

deb Explorer IX - Orbit

View from above orbital plane
View from above orbital plane
View from above satellite
View from above satellite

Ground track
Ground track

The orbit data is extracted from the following two-line orbital elements,

1 00085U 61004C   14203.20570853  .00001159  00000-0  31777-3 0    45
2 00085 038.7728 145.4698 0460378 270.0574 084.7430 14.01358425625192
Epoch (UTC): 22 July 2014 04:56:13
Eccentricity: 0.0460378
inclination: 38.7728°
perigee height: 554 km
apogee height: 1223 km
right ascension of ascending node: 145.4698°
argument of perigee: 270.0574°
revolutions per day: 14.01358425
mean anomaly at epoch: 84.7430°
orbit number at epoch: 62519

The dashed part of the orbit path shows where the satellite is in the earth's shadow,  

DLR